CW4535 Weather Reports


time (UTC)temp
F
wind
direction
speed
knots
gust
knots
rain 1hr
in
rain 24hr
in
rain mn
in
humidity
%
barometer
mb
20260906193003 104 124 0.0 1.7 0.00 0.00 0.00 37 1011.3
20260906192003 104 163 0.9 7.8 0.00 0.00 0.00 37 1011.5
20260906191003 104 120 0.9 5.2 0.00 0.00 0.00 39 1011.6
20260906190003 103 165 0.9 3.5 0.00 0.00 0.00 39 1011.7
20260906185003 103 114 0.9 4.3 0.00 0.00 0.00 40 1011.7
20260906184003 102 354 0.0 3.5 0.00 0.00 0.00 38 1011.8
20260906183003 103 348 0.9 4.3 0.00 0.00 0.00 37 1012.0
20260906182219 103 16 1.7 6.1 0.00 0.00 0.00 37 1012.2
20260906181003 103 53 0.9 3.5 0.00 0.00 0.00 37 1012.5
20260906180003 102 73 0.9 3.5 0.00 0.00 0.00 39 1012.7
20260906175217 103 70 0.9 2.6 0.00 0.00 0.00 40 1012.9
20260906174003 101 12 0.9 2.6 0.00 0.00 0.00 42 1013.0
20260906173003 101 350 0.9 3.5 0.00 0.00 0.00 41 1013.2
20260906172220 100 297 0.9 3.5 0.00 0.00 0.00 41 1013.3
20260906171004 100 75 0.9 3.5 0.00 0.00 0.00 42 1013.5
20260906170217 100 82 0.0 3.5 0.00 0.00 0.00 43 1013.6
20260906165003 99 261 0.0 2.6 0.00 0.00 0.00 48 1013.8
20260906164004 100 255 0.0 2.6 0.00 0.00 0.00 43 1013.9
20260906163003 98 48 0.9 3.5 0.00 0.00 0.00 45 1013.9
20260906162220 98 55 0.9 3.5 0.00 0.00 0.00 46 1013.9
20260906161216 97 284 0.0 1.7 0.00 0.00 0.00 48 1013.9
20260906160004 96 282 0.0 1.7 0.00 0.00 0.00 49 1014.0
20260906155003 96 282 0.0 1.7 0.00 0.00 0.00 49 1014.0
20260906154219 96 279 0.9 2.6 0.00 0.00 0.00 50 1013.9
20260906153003 95 255 0.0 1.7 0.00 0.00 0.00 51 1013.9
20260906152003 94 259 0.0 1.7 0.00 0.00 0.00 52 1013.8
20260906151003 93 274 0.0 0.9 0.00 0.00 0.00 55 1013.8
20260906150218 92 267 0.9 3.5 0.00 0.00 0.00 55 1013.7
20260906145003 92 232 0.9 2.6 0.00 0.00 0.00 57 1013.8
20260906144003 90 81 0.0 0.9 0.00 0.00 0.00 61 1013.8
20260906143003 89 81 0.0 0.9 0.00 0.00 0.00 62 1013.7
20260906142003 87 79 0.0 2.6 0.00 0.00 0.00 67 1013.8
20260906141003 88 72 0.0 0.9 0.00 0.00 0.00 63 1013.7
20260906140218 87 72 0.0 0.9 0.00 0.00 0.00 67 1013.7
20260906135003 85 72 0.0 0.9 0.00 0.00 0.00 69 1013.5
20260906134003 84 72 0.0 0.9 0.00 0.00 0.00 71 1013.5
20260906133221 83 72 0.0 0.9 0.00 0.00 0.00 72 1013.5
20260906131003 81 0 0.0 0.0 0.00 0.00 0.00 78 1013.5
20260906130003 79 0 0.0 0.0 0.00 0.00 0.00 80 1013.5
20260906125003 78 0 0.0 0.0 0.00 0.00 0.00 83 1013.4
20260906124221 77 0 0.0 0.0 0.00 0.00 0.00 84 1013.3
20260906123003 77 0 0.0 0.0 0.00 0.00 0.00 84 1013.1
20260906122003 77 0 0.0 0.0 0.00 0.00 0.00 85 1013.0
20260906121003 77 0 0.0 0.0 0.00 0.00 0.00 84 1013.0
20260906120220 77 0 0.0 0.0 0.00 0.00 0.00 85 1012.9
20260906115003 77 0 0.0 0.0 0.00 0.00 0.00 84 1012.7
20260906114003 77 0 0.0 0.0 0.00 0.00 0.00 84 1012.6
20260906113003 77 0 0.0 0.0 0.00 0.00 0.00 84 1012.6
20260906112003 77 0 0.0 0.0 0.00 0.00 0.00 83 1012.5
20260906111220 77 0 0.0 0.0 0.00 0.00 0.00 82 1012.5
20260906110004 78 0 0.0 0.0 0.00 0.00 0.00 82 1012.3
20260906105003 77 0 0.0 0.0 0.00 0.00 0.00 83 1012.2
20260906104003 78 0 0.0 0.0 0.00 0.00 0.00 82 1012.2
20260906103003 78 0 0.0 0.0 0.00 0.00 0.00 82 1012.2
20260906102003 78 0 0.0 0.0 0.00 0.00 0.00 81 1012.3
20260906101220 78 0 0.0 0.0 0.00 0.00 0.00 81 1012.3
20260906100003 78 0 0.0 0.0 0.00 0.00 0.00 80 1012.3
20260906095003 79 0 0.0 0.0 0.00 0.00 0.00 80 1012.3
20260906094003 79 0 0.0 0.0 0.00 0.00 0.00 80 1012.2
20260906093003 78 0 0.0 0.0 0.00 0.00 0.00 80 1012.1
20260906092003 78 0 0.0 0.0 0.00 0.00 0.00 80 1012.0
20260906091004 78 0 0.0 0.0 0.00 0.00 0.00 80 1012.0
20260906090003 79 0 0.0 0.0 0.00 0.00 0.00 80 1012.0
20260906085003 79 0 0.0 0.0 0.00 0.00 0.00 79 1011.8
20260906084219 79 0 0.0 0.0 0.00 0.00 0.00 79 1011.8
20260906083003 79 0 0.0 0.0 0.00 0.00 0.00 79 1011.7
20260906082003 79 0 0.0 0.0 0.00 0.00 0.00 79 1011.5
20260906081003 79 0 0.0 0.0 0.00 0.00 0.00 79 1011.5
20260906080004 79 0 0.0 0.0 0.00 0.00 0.00 78 1011.5
20260906075003 79 0 0.0 0.0 0.00 0.00 0.00 78 1011.5
20260906074003 79 0 0.0 0.0 0.00 0.00 0.00 78 1011.5
20260906073003 80 0 0.0 0.0 0.00 0.00 0.00 77 1011.5
20260906072003 80 0 0.0 0.0 0.00 0.00 0.00 76 1011.6
20260906071003 80 0 0.0 0.0 0.00 0.00 0.00 76 1011.7
20260906070003 80 0 0.0 0.0 0.00 0.00 0.00 75 1011.7
20260906065003 80 0 0.0 0.0 0.00 0.00 0.00 75 1011.7
20260906064003 81 0 0.0 0.0 0.00 0.00 0.00 75 1011.6
20260906063003 81 0 0.0 0.0 0.00 0.00 0.00 74 1011.8
20260906062003 81 0 0.0 0.0 0.00 0.00 0.00 74 1011.8
20260906061003 82 0 0.0 0.0 0.00 0.00 0.00 72 1011.8
20260906060003 81 0 0.0 0.0 0.00 0.00 0.00 73 1011.8
20260906055003 82 0 0.0 0.0 0.00 0.00 0.00 71 1011.7
20260906054003 82 0 0.0 0.0 0.00 0.00 0.00 70 1011.8
20260906053003 83 0 0.0 0.0 0.00 0.00 0.00 70 1011.7
20260906052217 82 72 0.0 0.9 0.00 0.00 0.00 70 1011.6
20260906051003 82 0 0.0 0.0 0.00 0.00 0.00 69 1011.4
20260906050005 83 0 0.0 0.0 0.00 0.00 0.00 69 1011.3
20260906045220 83 0 0.0 0.0 0.00 0.00 0.00 68 1011.4
20260906044003 83 0 0.0 0.0 0.00 0.00 0.00 68 1011.5
20260906043003 83 0 0.0 0.0 0.00 0.00 0.00 68 1011.5
20260906042003 83 0 0.0 0.0 0.00 0.00 0.00 67 1011.4
20260906041003 84 0 0.0 0.0 0.00 0.00 0.00 66 1011.6
20260906040003 84 0 0.0 0.0 0.00 0.00 0.00 65 1011.6
20260906035003 84 0 0.0 0.0 0.00 0.00 0.00 65 1011.6
20260906034004 84 0 0.0 0.0 0.00 0.00 0.00 64 1011.4
20260906033218 85 0 0.0 0.0 0.00 0.00 0.00 64 1011.4
20260906032003 85 0 0.0 0.0 0.00 0.00 0.00 63 1011.2
20260906031003 85 0 0.0 0.0 0.00 0.00 0.00 63 1011.3
20260906030004 85 0 0.0 0.0 0.00 0.00 0.00 61 1011.3
20260906025003 86 0 0.0 0.0 0.00 0.00 0.00 61 1011.3
20260906024003 86 0 0.0 0.0 0.00 0.00 0.00 60 1011.1
20260906023218 86 0 0.0 0.0 0.00 0.00 0.00 60 1011.0
20260906022003 87 0 0.0 0.0 0.00 0.00 0.00 59 1010.7
20260906021220 87 0 0.0 0.0 0.00 0.00 0.00 59 1010.6
20260906020003 87 0 0.0 0.0 0.00 0.00 0.00 58 1010.6
20260906015003 87 72 0.0 0.9 0.00 0.00 0.00 57 1010.5
20260906014218 88 0 0.0 0.0 0.00 0.00 0.00 55 1010.4
20260906013003 89 0 0.0 0.0 0.00 0.00 0.00 54 1010.3
20260906012003 89 0 0.0 0.0 0.00 0.00 0.00 52 1010.3
20260906011221 90 0 0.0 0.0 0.00 0.00 0.00 51 1010.2
20260906010004 91 0 0.0 0.0 0.00 0.00 0.00 49 1010.1
20260906005003 92 0 0.0 0.0 0.00 0.00 0.00 47 1010.1
20260906004003 93 0 0.0 0.0 0.00 0.00 0.00 46 1010.0
20260906003219 95 73 0.0 2.6 0.00 0.00 0.00 45 1010.1
20260906002003 95 74 0.0 0.9 0.00 0.00 0.00 44 1010.0
20260906001003 97 69 0.9 5.2 0.00 0.00 0.00 43 1010.0
20260906000004 98 79 0.9 2.6 0.00 0.00 0.00 40 1009.9
20260905235003 98 71 0.9 3.5 0.00 0.00 0.00 40 1009.8
20260905234003 99 56 0.9 3.5 0.00 0.00 0.00 40 1009.9
20260905233003 99 100 0.0 4.3 0.00 0.00 0.00 41 1009.8
20260905232003 101 72 0.0 2.6 0.00 0.00 0.00 38 1009.8
20260905231217 101 89 0.9 2.6 0.00 0.00 0.00 38 1009.7
20260905230003 101 150 0.0 2.6 0.00 0.00 0.00 37 1009.6
20260905225003 101 172 0.0 2.6 0.00 0.00 0.00 39 1009.8
20260905224003 101 124 0.9 4.3 0.00 0.00 0.00 38 1009.7
20260905223003 102 117 0.9 2.6 0.00 0.00 0.00 39 1009.8
20260905222217 102 76 0.0 2.6 0.00 0.00 0.00 37 1009.8
20260905221003 100 100 0.9 2.6 0.00 0.00 0.00 39 1009.9
20260905220004 101 126 0.9 2.6 0.00 0.00 0.00 40 1010.0
20260905215003 102 101 0.9 4.3 0.00 0.00 0.00 39 1010.2
20260905214003 101 157 0.9 4.3 0.00 0.00 0.00 38 1010.2
20260905213003 102 110 0.9 2.6 0.00 0.00 0.00 38 1010.4
20260905212217 102 165 0.9 3.5 0.00 0.00 0.00 38 1010.5
20260905211003 100 124 0.9 2.6 0.00 0.00 0.00 39 1010.6
20260905210003 102 132 0.9 6.1 0.00 0.00 0.00 40 1010.8
20260905205003 101 142 0.9 3.5 0.00 0.00 0.00 38 1010.8
20260905204003 102 142 0.9 4.3 0.00 0.00 0.00 40 1011.1
20260905203003 102 137 0.9 5.2 0.00 0.00 0.00 41 1011.3
20260905202003 100 113 0.9 4.3 0.00 0.00 0.00 43 1011.5
20260905201219 98 101 0.9 5.2 0.00 0.00 0.00 43 1011.7
20260905200004 102 108 0.9 4.3 0.00 0.00 0.00 40 1011.8
20260905195221 100 96 0.9 5.2 0.00 0.00 0.00 41 1011.9
20260905194003 99 91 0.9 4.3 0.00 0.00 0.00 43 1012.1